{"data":{"norad_id":64607,"intl_designator":"2025-137P","name":"STARLINK-34532","alt_names":[],"object_type":"PAYLOAD","status":"ACTIVE","operator":null,"country":"US","launch_date":"2025-06-25","launch_site_code":"AFETR","launch_vehicle":null,"mission":null,"orbit_class":"UNKNOWN","rcs_meters":null,"size_class":null,"mass_kg":null,"dimensions":null,"purposes":["comms"],"wikipedia_slug":null,"has_3d_model":false,"image_url":null,"decayed_at":null,"tle_current":{"epoch":"2026-09-20T02:49:57.690912Z","epoch_age_seconds":164362,"freshness":"FRESH","line1":"1 64607U 25137P   26263.11802883  .00021313  00000+0  63997-3 0  9997","line2":"2 64607  53.1580 159.1777 0000530 127.4672 232.6379 15.34408073 70409","mean_motion":15.34408073,"eccentricity":5.3e-5,"inclination_deg":53.158,"raan_deg":159.1777,"arg_perigee_deg":127.4672,"mean_anomaly_deg":232.6379,"bstar":0.00063997,"rev_number":7040,"period_min":93.847264318975,"perigee_km":462.31668239398,"apogee_km":463.04180891602,"semimajor_km":6840.816245655,"source":"CELESTRAK","updated_at":"2026-09-21T09:00:35.393625Z"}}}